Time,TemperatureF,DewpointF,PressureIn,WindDirection,WindDirectionDegrees,WindSpeedMPH,WindSpeedGustMPH,Humidity,HourlyPrecipIn,Conditions,Clouds,dailyrainin,SolarRadiationWatts/m^2,SoftwareType,DateUTC
2013-08-19 00:02:00,56.0,41.0,-100.00,SSW,209,1.0,3.0,56,0.00,,,0.00,0.000000,,2013-08-19 06:02:00,
2013-08-19 00:11:00,56.0,41.0,-100.00,SSW,209,1.0,3.0,56,0.00,,,0.00,0.000000,,2013-08-19 06:11:00,
2013-08-19 00:21:00,56.0,41.0,-100.00,SSW,209,1.0,3.0,56,0.00,,,0.00,0.000000,,2013-08-19 06:21:00,
2013-08-19 00:52:00,55.0,42.0,-100.00,NNW,344,2.0,3.0,62,0.00,,,0.00,0.000000,,2013-08-19 06:52:00,
2013-08-19 01:01:00,55.0,42.0,-100.00,NNW,344,2.0,3.0,62,0.00,,,0.00,0.000000,,2013-08-19 07:01:00,
2013-08-19 01:12:00,55.0,42.0,-100.00,NNW,344,2.0,3.0,62,0.00,,,0.00,0.000000,,2013-08-19 07:12:00,
2013-08-19 01:21:00,55.0,42.0,-100.00,NNW,344,2.0,3.0,62,0.00,,,0.00,0.000000,,2013-08-19 07:21:00,
2013-08-19 01:52:00,52.0,41.0,-100.00,West,268,2.0,2.0,65,0.00,,,0.00,0.000000,,2013-08-19 07:52:00,
2013-08-19 02:02:00,52.0,41.0,-100.00,West,268,2.0,2.0,65,0.00,,,0.00,0.000000,,2013-08-19 08:02:00,
2013-08-19 02:11:00,52.0,41.0,-100.00,West,268,2.0,2.0,65,0.00,,,0.00,0.000000,,2013-08-19 08:11:00,
2013-08-19 02:21:00,52.0,41.0,-100.00,West,268,2.0,2.0,65,0.00,,,0.00,0.000000,,2013-08-19 08:21:00,
2013-08-19 02:52:00,50.0,40.0,-100.00,NW,307,2.0,3.0,68,0.00,,,0.00,0.000000,,2013-08-19 08:52:00,
2013-08-19 03:01:00,50.0,40.0,-100.00,NW,307,2.0,3.0,68,0.00,,,0.00,0.000000,,2013-08-19 09:01:00,
2013-08-19 03:11:00,50.0,40.0,-100.00,NW,307,2.0,3.0,68,0.00,,,0.00,0.000000,,2013-08-19 09:11:00,
2013-08-19 03:22:00,50.0,40.0,-100.00,NW,307,2.0,3.0,68,0.00,,,0.00,0.000000,,2013-08-19 09:22:00,
2013-08-19 03:23:00,49.0,39.0,-100.00,WNW,303,2.0,3.0,69,0.00,,,0.00,0.000000,,2013-08-19 09:23:00,
2013-08-19 03:53:00,49.0,39.0,-100.00,WNW,303,2.0,3.0,69,0.00,,,0.00,0.000000,,2013-08-19 09:53:00,
2013-08-19 04:03:00,49.0,39.0,-100.00,WNW,303,2.0,3.0,69,0.00,,,0.00,0.000000,,2013-08-19 10:03:00,
2013-08-19 04:12:00,49.0,39.0,-100.00,WNW,303,2.0,3.0,69,0.00,,,0.00,0.000000,,2013-08-19 10:12:00,
2013-08-19 04:52:00,48.0,39.0,-100.00,NNW,345,2.0,3.0,71,0.00,,,0.00,0.000000,,2013-08-19 10:52:00,
2013-08-19 05:02:00,48.0,39.0,-100.00,NNW,345,2.0,3.0,71,0.00,,,0.00,0.000000,,2013-08-19 11:02:00,
2013-08-19 05:12:00,48.0,39.0,-100.00,NNW,345,2.0,3.0,71,0.00,,,0.00,0.000000,,2013-08-19 11:12:00,
2013-08-19 05:21:00,48.0,39.0,-100.00,NNW,345,2.0,3.0,71,0.00,,,0.00,0.000000,,2013-08-19 11:21:00,
2013-08-19 05:52:00,48.0,39.0,-100.00,WNW,298,2.0,4.0,70,0.00,,,0.00,0.000000,,2013-08-19 11:52:00,
2013-08-19 06:01:00,48.0,39.0,-100.00,WNW,298,2.0,4.0,70,0.00,,,0.00,0.000000,,2013-08-19 12:01:00,
2013-08-19 06:11:00,48.0,39.0,-100.00,WNW,298,2.0,4.0,70,0.00,,,0.00,0.000000,,2013-08-19 12:11:00,
2013-08-19 06:21:00,48.0,39.0,-100.00,WNW,298,2.0,4.0,70,0.00,,,0.00,0.000000,,2013-08-19 12:21:00,
2013-08-19 06:52:00,49.0,38.0,-100.00,WNW,298,2.0,4.0,66,0.00,,,0.00,1.000000,,2013-08-19 12:52:00,
2013-08-19 07:03:00,49.0,38.0,-100.00,WNW,298,2.0,4.0,66,0.00,,,0.00,1.000000,,2013-08-19 13:03:00,
2013-08-19 07:13:00,49.0,38.0,-100.00,WNW,298,2.0,4.0,66,0.00,,,0.00,1.000000,,2013-08-19 13:13:00,
2013-08-19 07:22:00,49.0,38.0,-100.00,WNW,298,2.0,4.0,66,0.00,,,0.00,1.000000,,2013-08-19 13:22:00,
2013-08-19 07:52:00,58.0,41.0,-100.00,South,170,1.0,2.0,54,0.00,,,0.00,109.000000,,2013-08-19 13:52:00,
2013-08-19 08:02:00,58.0,41.0,-100.00,South,170,1.0,2.0,54,0.00,,,0.00,109.000000,,2013-08-19 14:02:00,
2013-08-19 08:11:00,58.0,41.0,-100.00,South,170,1.0,2.0,54,0.00,,,0.00,109.000000,,2013-08-19 14:11:00,
2013-08-19 08:21:00,58.0,41.0,-100.00,South,170,1.0,2.0,54,0.00,,,0.00,109.000000,,2013-08-19 14:21:00,
2013-08-19 08:52:00,63.0,42.0,-100.00,SE,146,2.0,3.0,47,0.00,,,0.00,362.000000,,2013-08-19 14:52:00,
2013-08-19 09:01:00,63.0,42.0,-100.00,SE,146,2.0,3.0,47,0.00,,,0.00,362.000000,,2013-08-19 15:01:00,
2013-08-19 09:11:00,63.0,42.0,-100.00,SE,146,2.0,3.0,47,0.00,,,0.00,362.000000,,2013-08-19 15:11:00,
2013-08-19 09:22:00,63.0,42.0,-100.00,SE,146,2.0,3.0,47,0.00,,,0.00,362.000000,,2013-08-19 15:22:00,
2013-08-19 09:23:00,66.0,43.0,-100.00,SSE,148,2.0,3.0,44,0.00,,,0.00,605.000000,,2013-08-19 15:23:00,
2013-08-19 09:54:00,66.0,43.0,-100.00,SSE,148,2.0,3.0,44,0.00,,,0.00,605.000000,,2013-08-19 15:54:00,
2013-08-19 10:05:00,66.0,43.0,-100.00,SSE,148,2.0,3.0,44,0.00,,,0.00,605.000000,,2013-08-19 16:05:00,
2013-08-19 10:13:00,66.0,43.0,-100.00,SSE,148,2.0,3.0,44,0.00,,,0.00,605.000000,,2013-08-19 16:13:00,
2013-08-19 10:23:00,71.0,-99.9,-100.00,SE,129,3.0,5.0,35,0.00,,,0.00,816.000000,,2013-08-19 16:23:00,
2013-08-19 11:04:00,71.0,42.0,-100.00,SE,129,3.0,5.0,35,0.00,,,0.00,816.000000,,2013-08-19 17:04:00,
2013-08-19 11:13:00,71.0,42.0,-100.00,SE,129,3.0,5.0,35,0.00,,,0.00,816.000000,,2013-08-19 17:13:00,
2013-08-19 11:23:00,77.0,41.0,-100.00,SSE,161,2.0,5.0,28,0.00,,,0.00,993.000000,,2013-08-19 17:23:00,
2013-08-19 11:57:00,77.0,41.0,-100.00,SSE,161,2.0,5.0,28,0.00,,,0.00,993.000000,,2013-08-19 17:57:00,
2013-08-19 12:05:00,77.0,41.0,-100.00,SSE,161,2.0,5.0,28,0.00,,,0.00,993.000000,,2013-08-19 18:05:00,
2013-08-19 12:19:00,77.0,41.0,-100.00,SSE,161,2.0,5.0,28,0.00,,,0.00,993.000000,,2013-08-19 18:19:00,
2013-08-19 12:23:00,-999.0,-99.9,-100.00,NE,41,4.0,10.0,18,0.00,,,0.00,1140.000000,,2013-08-19 18:23:00,
2013-08-19 12:50:00,-999.0,-99.9,-100.00,NE,41,4.0,10.0,18,0.00,,,0.00,1140.000000,,2013-08-19 18:50:00,
2013-08-19 13:00:00,-999.0,-99.9,-100.00,NE,41,4.0,10.0,18,0.00,,,0.00,1140.000000,,2013-08-19 19:00:00,
2013-08-19 13:07:00,81.0,33.0,-100.00,NE,41,4.0,10.0,18,0.00,,,0.00,1140.000000,,2013-08-19 19:07:00,
2013-08-19 13:16:00,81.0,33.0,-100.00,NE,41,4.0,10.0,18,0.00,,,0.00,1140.000000,,2013-08-19 19:16:00,
2013-08-19 13:23:00,82.0,33.0,-100.00,SE,137,4.0,7.0,17,0.00,,,0.00,937.000000,,2013-08-19 19:23:00,
2013-08-19 13:59:00,82.0,33.0,-100.00,SE,137,4.0,7.0,17,0.00,,,0.00,937.000000,,2013-08-19 19:59:00,
2013-08-19 14:08:00,82.0,33.0,-100.00,SE,137,4.0,7.0,17,0.00,,,0.00,937.000000,,2013-08-19 20:08:00,
2013-08-19 14:20:00,82.0,33.0,-100.00,SE,137,4.0,7.0,17,0.00,,,0.00,937.000000,,2013-08-19 20:20:00,
2013-08-19 14:23:00,73.0,32.0,-100.00,NW,315,7.0,15.0,22,0.00,,,0.00,349.000000,,2013-08-19 20:23:00,
2013-08-19 15:00:00,-999.0,-99.9,-100.00,NW,315,7.0,15.0,-999,-99.99,,,-99.99,349.000000,,2013-08-19 21:00:00,
2013-08-19 15:08:00,73.0,32.0,-100.00,NW,315,7.0,15.0,22,0.00,,,0.00,349.000000,,2013-08-19 21:08:00,
2013-08-19 15:16:00,73.0,32.0,-100.00,NW,315,7.0,15.0,22,0.00,,,0.00,349.000000,,2013-08-19 21:16:00,
2013-08-19 15:23:00,78.0,32.0,-100.00,ENE,60,2.0,13.0,19,0.00,,,0.00,374.000000,,2013-08-19 21:23:00,
2013-08-19 15:55:00,78.0,32.0,-100.00,ENE,60,2.0,13.0,19,0.00,,,0.00,374.000000,,2013-08-19 21:55:00,
2013-08-19 16:06:00,78.0,32.0,-100.00,ENE,60,2.0,13.0,19,0.00,,,0.00,374.000000,,2013-08-19 22:06:00,
2013-08-19 16:23:00,80.0,33.0,-100.00,SSW,192,2.0,5.0,18,0.00,,,0.00,508.000000,,2013-08-19 22:23:00,
2013-08-19 16:55:00,80.0,33.0,-100.00,SSW,192,2.0,5.0,18,0.00,,,0.00,508.000000,,2013-08-19 22:55:00,
2013-08-19 17:05:00,80.0,33.0,-100.00,SSW,192,2.0,5.0,18,0.00,,,0.00,508.000000,,2013-08-19 23:05:00,
2013-08-19 17:15:00,80.0,33.0,-100.00,SSW,192,2.0,5.0,18,0.00,,,0.00,508.000000,,2013-08-19 23:15:00,
2013-08-19 17:23:00,74.0,36.0,-100.00,South,177,5.0,12.0,25,0.00,,,0.00,358.000000,,2013-08-19 23:23:00,
2013-08-19 17:55:00,74.0,36.0,-100.00,South,177,5.0,12.0,25,0.00,,,0.00,358.000000,,2013-08-19 23:55:00,
2013-08-19 18:02:00,74.0,36.0,-100.00,South,177,5.0,12.0,25,0.00,,,0.00,358.000000,,2013-08-20 00:02:00,
2013-08-19 18:11:00,74.0,36.0,-100.00,South,177,5.0,12.0,25,0.00,,,0.00,358.000000,,2013-08-20 00:11:00,
2013-08-19 18:52:00,71.0,36.0,-100.00,SSE,165,4.0,9.0,28,0.00,,,0.00,106.000000,,2013-08-20 00:52:00,
2013-08-19 19:03:00,71.0,36.0,-100.00,SSE,165,4.0,9.0,28,0.00,,,0.00,106.000000,,2013-08-20 01:03:00,
2013-08-19 19:11:00,71.0,36.0,-100.00,SSE,165,4.0,9.0,28,0.00,,,0.00,106.000000,,2013-08-20 01:11:00,
2013-08-19 19:22:00,71.0,36.0,-100.00,SSE,165,4.0,9.0,28,0.00,,,0.00,106.000000,,2013-08-20 01:22:00,
2013-08-19 19:52:00,69.0,38.0,-100.00,NW,314,2.0,6.0,32,0.00,,,0.00,43.000000,,2013-08-20 01:52:00,
2013-08-19 20:02:00,69.0,38.0,-100.00,NW,314,2.0,6.0,32,0.00,,,0.00,43.000000,,2013-08-20 02:02:00,
2013-08-19 20:11:00,69.0,38.0,-100.00,NW,314,2.0,6.0,32,0.00,,,0.00,43.000000,,2013-08-20 02:11:00,
2013-08-19 20:21:00,69.0,38.0,-100.00,NW,314,2.0,6.0,32,0.00,,,0.00,43.000000,,2013-08-20 02:21:00,
2013-08-19 20:52:00,65.0,40.0,-100.00,NE,38,2.0,6.0,40,0.00,,,0.00,8.000000,,2013-08-20 02:52:00,
2013-08-19 21:02:00,65.0,40.0,-100.00,NE,38,2.0,6.0,40,0.00,,,0.00,8.000000,,2013-08-20 03:02:00,
2013-08-19 21:11:00,65.0,40.0,-100.00,NE,38,2.0,6.0,40,0.00,,,0.00,8.000000,,2013-08-20 03:11:00,
2013-08-19 21:22:00,65.0,40.0,-100.00,NE,38,2.0,6.0,40,0.00,,,0.00,8.000000,,2013-08-20 03:22:00,
2013-08-19 21:23:00,61.0,43.0,-100.00,SW,216,3.0,4.0,51,0.00,,,0.00,0.000000,,2013-08-20 03:23:00,
2013-08-19 21:54:00,61.0,43.0,-100.00,SW,216,3.0,4.0,51,0.00,,,0.00,0.000000,,2013-08-20 03:54:00,
2013-08-19 22:03:00,61.0,43.0,-100.00,SW,216,3.0,4.0,51,0.00,,,0.00,0.000000,,2013-08-20 04:03:00,
2013-08-19 22:13:00,61.0,43.0,-100.00,SW,216,3.0,4.0,51,0.00,,,0.00,0.000000,,2013-08-20 04:13:00,
2013-08-19 22:53:00,62.0,41.0,-100.00,SSE,156,2.0,4.0,46,0.00,,,0.00,0.000000,,2013-08-20 04:53:00,
2013-08-19 23:02:00,62.0,41.0,-100.00,SSE,156,2.0,4.0,46,0.00,,,0.00,0.000000,,2013-08-20 05:02:00,
2013-08-19 23:12:00,62.0,41.0,-100.00,SSE,156,2.0,4.0,46,0.00,,,0.00,0.000000,,2013-08-20 05:12:00,
2013-08-19 23:22:00,62.0,41.0,-100.00,SSE,156,2.0,4.0,46,0.00,,,0.00,0.000000,,2013-08-20 05:22:00,
2013-08-19 23:52:00,56.0,39.0,-100.00,WNW,298,2.0,3.0,52,0.00,,,0.00,0.000000,,2013-08-20 05:52:00,